Batman, Turkey

11:04 AM EET on February 10, 2016 (GMT +0200)
Batman Air Base

Weather History for LTCJ - September, 2012

Change the Weather History Date:

Wednesday, September 19, 2012

  Actual Average (LTCC) Record (LTCC)
Temperature  
Mean Temperature 75 °F -  
Max Temperature 95 °F 88 °F 97 °F (2015)
Min Temperature 55 °F 58 °F 32 °F (1996)
Cooling Degree Days 10    
Growing Degree Days 25 (Base 50)    
Moisture  
Dew Point 38 °F    
Average Humidity 29    
Maximum Humidity 63    
Minimum Humidity 9    
Precipitation  
Precipitation 0.00 in - - ()
Sea Level Pressure  
Sea Level Pressure 29.82 in    
Wind  
Wind Speed 5 mph ()    
Max Wind Speed 9 mph    
Max Gust Speed -    
Visibility 3.4 miles    
Events      
Averages and records for this station are not official NWS values.
T = Trace of Precipitation, MM = Missing Value Source: Averaged Metar Reports

Daily Weather History Graph

Daily Weather History Graph

Search for Another Location

Airport or City:

Trip Planner

Search our weather history database for the weather conditions in past years. The results will help you decide how hot, cold, wet, or windy it might be!

Date:

Astronomy

Sep. 19, 2012 Rise Set
Actual Time 6:00 AM EEST 6:16 PM EEST
Civil Twilight 5:34 AM EEST 6:43 PM EEST
Nautical Twilight 5:03 AM EEST 7:13 PM EEST
Astronomical Twilight 4:32 AM EEST 7:45 PM EEST
Moon 9:40 AM EEST (9/19) 8:14 PM EEST (9/19)
Length of Visible Light 13h 08m
Length of Day
12h 16m
Waxing Crescent, 14% of the Moon is Illuminated
Sep 19
Waxing Crescent
Sep 22
First Quarter
Sep 30
Full
Oct 8
Last Quarter
Oct 15
New

Hourly Weather History & Observations

Time (EEST) Temp. Dew Point Humidity Pressure Visibility Wind Dir Wind Speed Gust Speed Precip Events Conditions
12:20 AM 64.4 °F 35.6 °F 34% 29.83 in - NNE 8.1 mph - N/A   Clear
12:50 AM 66.2 °F 37.4 °F 35% 29.83 in - ENE 9.2 mph - N/A   Clear
1:20 AM 66.2 °F 35.6 °F 32% 29.83 in - NNE 8.1 mph - N/A   Clear
1:50 AM 60.8 °F 39.2 °F 45% 29.83 in - NNE 5.8 mph - N/A   Clear
2:20 AM 62.6 °F 33.8 °F 34% 29.83 in 5.0 mi NE 6.9 mph - N/A   Unknown
3:20 AM 60.8 °F 37.4 °F 42% 29.80 in 4.3 mi North 4.6 mph - N/A   Unknown
3:50 AM 59.0 °F 41.0 °F 51% 29.80 in 3.1 mi North 3.5 mph - N/A   Smoke
4:20 AM 57.2 °F 35.6 °F 44% 29.80 in 3.7 mi NNE 5.8 mph - N/A   Unknown
4:50 AM 59.0 °F 35.6 °F 42% 29.80 in 2.8 mi NNE 3.5 mph - N/A   Smoke
5:20 AM 57.2 °F 35.6 °F 44% 29.80 in 3.7 mi NE 4.6 mph - N/A   Unknown
5:50 AM 57.2 °F 41.0 °F 55% 29.83 in 2.5 mi NNW 2.3 mph - N/A   Smoke
6:20 AM 55.4 °F 42.8 °F 63% 29.83 in 2.8 mi NNE 4.6 mph - N/A   Smoke
6:50 AM 59.0 °F 41.0 °F 51% 29.83 in - Variable 2.3 mph - N/A   Smoke
7:20 AM 62.6 °F 41.0 °F 45% 29.83 in - Calm Calm - N/A   Smoke
7:50 AM 66.2 °F 39.2 °F 37% 29.86 in - Calm Calm - N/A   Smoke
8:20 AM 69.8 °F 39.2 °F 33% 29.86 in 2.5 mi Calm Calm - N/A   Smoke
8:50 AM 71.6 °F 39.2 °F 31% 29.86 in 2.5 mi Variable 2.3 mph - N/A   Smoke
9:20 AM 77.0 °F 39.2 °F 26% 29.86 in 2.8 mi Variable 1.2 mph - N/A   Smoke
9:50 AM 82.4 °F 35.6 °F 19% 29.86 in 3.7 mi Calm Calm - N/A   Unknown
10:20 AM 86.0 °F 33.8 °F 15% 29.86 in 4.3 mi Variable 2.3 mph - N/A   Unknown
10:50 AM 87.8 °F 33.8 °F 15% 29.83 in - Variable 2.3 mph - N/A   Clear
11:20 AM 91.4 °F 33.8 °F 13% 29.83 in - Variable 3.5 mph - N/A   Clear
11:50 AM 91.4 °F 35.6 °F 14% 29.83 in - Variable 4.6 mph - N/A   Clear
12:20 PM 91.4 °F 35.6 °F 14% 29.83 in - South 6.9 mph - N/A   Clear
12:50 PM 93.2 °F 35.6 °F 13% 29.80 in - North 3.5 mph - N/A   Clear
1:20 PM 95.0 °F 33.8 °F 12% 29.80 in - Variable 5.8 mph - N/A   Clear
1:50 PM 95.0 °F 30.2 °F 10% 29.80 in - SW 8.1 mph - N/A   Clear
2:20 PM 95.0 °F 30.2 °F 10% 29.77 in - SE 5.8 mph - N/A   Clear
2:50 PM 95.0 °F 28.4 °F 9% 29.77 in - SSW 6.9 mph - N/A   Clear
3:20 PM 95.0 °F 30.2 °F 10% 29.77 in - South 4.6 mph - N/A   Clear
3:50 PM 95.0 °F 32.0 °F 11% 29.77 in - West 6.9 mph - N/A   Clear
4:20 PM 95.0 °F 32.0 °F 11% 29.77 in - West 4.6 mph - N/A   Clear
4:50 PM 93.2 °F 35.6 °F 13% 29.77 in - WSW 9.2 mph - N/A   Clear
5:20 PM 91.4 °F 39.2 °F 16% 29.77 in - WSW 8.1 mph - N/A   Clear
5:50 PM 89.6 °F 39.2 °F 17% 29.77 in - SW 6.9 mph - N/A   Clear
6:20 PM 87.8 °F 41.0 °F 19% 29.77 in - SW 9.2 mph - N/A   Clear
6:50 PM 84.2 °F 41.0 °F 22% 29.80 in - SSW 6.9 mph - N/A   Clear
7:20 PM 80.6 °F 44.6 °F 28% 29.80 in - WSW 3.5 mph - N/A   Clear
7:50 PM 80.6 °F 42.8 °F 26% 29.80 in - WSW 4.6 mph - N/A   Clear
8:20 PM 78.8 °F 44.6 °F 30% 29.83 in - SW 4.6 mph - N/A   Clear
8:50 PM 77.0 °F 44.6 °F 32% 29.83 in - Calm Calm - N/A   Clear
9:20 PM 75.2 °F 44.6 °F 34% 29.83 in - Calm Calm - N/A   Clear
9:50 PM 75.2 °F 44.6 °F 34% 29.83 in - Calm Calm - N/A   Clear
10:20 PM 69.8 °F 46.4 °F 43% 29.83 in - NNE 6.9 mph - N/A   Clear
10:50 PM 69.8 °F 44.6 °F 40% 29.83 in - NNE 4.6 mph - N/A   Clear
11:20 PM 68.0 °F 46.4 °F 46% 29.86 in - NNE 6.9 mph - N/A   Clear
11:50 PM 68.0 °F 42.8 °F 40% 29.86 in - NNE 5.8 mph - N/A   Clear